Faribault, MN

1:28 AM CDT on March 25, 2017 (GMT -0500)
Faribault Municipal

Weather History for KFBL - November, 2014

Change the Weather History Date:

Tuesday, November 18, 2014

  Actual Average Record
Temperature  
Mean Temperature 12 °F -  
Max Temperature 19 °F 41 °F 66 °F (1953)
Min Temperature 6 °F 24 °F 1 °F (1989)
Degree Days  
Heating Degree Days 52    
Moisture  
Dew Point 7 °F    
Average Humidity 75    
Maximum Humidity 85    
Minimum Humidity 53    
Precipitation  
Precipitation 0.00 in - - ()
Sea Level Pressure  
Sea Level Pressure 29.96 in    
Wind  
Wind Speed 9 mph (SW)    
Max Wind Speed 14 mph    
Max Gust Speed 20 mph    
Visibility 10 miles    
Events Snow    
Averages and records for this station are not official NWS values.
T = Trace of Precipitation, MM = Missing Value Source: NWS Daily Summary

Daily Weather History Graph

Daily Weather History Graph

Search for Another Location

Airport or City:

Trip Planner

Search our weather history database for the weather conditions in past years. The results will help you decide how hot, cold, wet, or windy it might be!

Date:

Astronomy

Nov. 18, 2014 Rise Set
Actual Time 7:13 AM CST 4:43 PM CST
Civil Twilight 6:41 AM CST 5:14 PM CST
Nautical Twilight 6:06 AM CST 5:50 PM CST
Astronomical Twilight 5:31 AM CST 6:24 PM CST
Moon 3:02 AM CST (11/18) 2:46 PM CST (11/18)
Length of Visible Light 10h 33m
Length of Day
9h 30m
Waning Crescent, 15% of the Moon is Illuminated
Nov 18
Waning Crescent
Nov 22
New
Nov 29
First Quarter
Dec 6
Full
Dec 14
Last Quarter

Hourly Weather History & Observations

Time (CST) Temp. Windchill Dew Point Humidity Pressure Visibility Wind Dir Wind Speed Gust Speed Precip Events Conditions
12:14 AM 6.8 °F -5.9 °F 1.4 °F 79% 29.99 in 10.0 mi WSW 8.1 mph - N/A   Clear
12:34 AM 6.8 °F -6.9 °F 1.4 °F 79% 29.99 in 10.0 mi WSW 9.2 mph - N/A   Scattered Clouds
12:54 AM 6.8 °F -7.8 °F 1.4 °F 79% 29.99 in 10.0 mi West 10.4 mph - N/A   Mostly Cloudy
1:13 AM 6.8 °F -8.6 °F 1.4 °F 79% 29.99 in 10.0 mi West 11.5 mph - N/A   Scattered Clouds
1:34 AM 6.8 °F -10.0 °F 3.2 °F 85% 29.99 in 10.0 mi West 13.8 mph 17.3 mph N/A   Mostly Cloudy
1:54 AM 6.8 °F -10.0 °F 3.2 °F 85% 29.99 in 10.0 mi West 13.8 mph 19.6 mph N/A   Overcast
2:13 AM 8.6 °F -7.0 °F 3.2 °F 79% 29.99 in 10.0 mi West 12.7 mph 19.6 mph N/A   Overcast
2:34 AM 8.6 °F -7.0 °F 3.2 °F 79% 29.99 in 10.0 mi West 12.7 mph 19.6 mph N/A   Overcast
2:54 AM 8.6 °F -6.3 °F 3.2 °F 79% 29.99 in 10.0 mi West 11.5 mph - N/A   Overcast
3:13 AM 8.6 °F -6.3 °F 3.2 °F 79% 29.99 in 10.0 mi West 11.5 mph 17.3 mph N/A   Overcast
3:34 AM 8.6 °F -7.0 °F 3.2 °F 79% 29.99 in 10.0 mi West 12.7 mph - N/A   Overcast
3:54 AM 10.4 °F -5.4 °F 3.2 °F 73% 30.00 in 10.0 mi West 13.8 mph 18.4 mph N/A   Overcast
4:14 AM 8.6 °F -6.3 °F 3.2 °F 79% 30.00 in 10.0 mi West 11.5 mph 19.6 mph N/A   Overcast
4:34 AM 8.6 °F -4.7 °F 3.2 °F 79% 30.01 in 10.0 mi West 9.2 mph - N/A   Overcast
4:54 AM 8.6 °F -3.7 °F 3.2 °F 79% 30.01 in 10.0 mi West 8.1 mph - N/A   Overcast
5:14 AM 8.6 °F -5.5 °F 3.2 °F 79% 30.01 in 10.0 mi West 10.4 mph - N/A   Overcast
5:34 AM 8.6 °F -4.7 °F 3.2 °F 79% 30.01 in 10.0 mi West 9.2 mph - N/A   Scattered Clouds
5:54 AM 8.6 °F -4.7 °F 3.2 °F 79% 30.02 in 10.0 mi West 9.2 mph - N/A   Clear
6:14 AM 8.6 °F -4.7 °F 3.2 °F 79% 30.02 in 10.0 mi West 9.2 mph - N/A   Clear
6:34 AM 8.6 °F -4.7 °F 3.2 °F 79% 30.02 in 10.0 mi West 9.2 mph - N/A Snow Light Snow
6:54 AM 6.8 °F -4.8 °F 3.2 °F 85% 30.02 in 5.0 mi West 6.9 mph - N/A Snow Light Snow
7:14 AM 6.8 °F -6.9 °F 3.2 °F 85% 30.02 in 10.0 mi West 9.2 mph - N/A Snow Light Snow
7:34 AM 8.6 °F -4.7 °F 3.2 °F 79% 30.02 in 5.0 mi West 9.2 mph - N/A Snow Light Snow
7:54 AM 8.6 °F -3.7 °F 5.0 °F 85% 30.02 in 5.0 mi West 8.1 mph - N/A Snow Light Snow
8:14 AM 10.4 °F -4.1 °F 6.8 °F 85% 30.03 in 7.0 mi West 11.5 mph - N/A   Overcast
8:34 AM 10.4 °F -3.3 °F 5.0 °F 79% 30.03 in 10.0 mi West 10.4 mph - N/A   Mostly Cloudy
8:54 AM 10.4 °F -3.3 °F 5.0 °F 79% 30.04 in 10.0 mi West 10.4 mph - N/A Snow Light Snow
9:14 AM 10.4 °F -3.3 °F 5.0 °F 79% 30.04 in 10.0 mi West 10.4 mph - N/A   Clear
9:34 AM 12.2 °F -1.8 °F 6.8 °F 79% 30.04 in 10.0 mi West 11.5 mph - N/A   Mostly Cloudy
9:53 AM 12.2 °F -1.0 °F 5.0 °F 73% 30.04 in 10.0 mi West 10.4 mph - N/A   Overcast
10:14 AM 12.2 °F 0.7 °F 6.8 °F 79% 30.04 in 10.0 mi West 8.1 mph - N/A   Overcast
10:34 AM 14.0 °F 3.9 °F 6.8 °F 73% 30.04 in 10.0 mi West 6.9 mph - N/A   Overcast
10:54 AM 15.8 °F 4.2 °F 6.8 °F 68% 30.04 in 10.0 mi WSW 9.2 mph - N/A   Overcast
11:14 AM 15.8 °F 6.1 °F 6.8 °F 68% 30.03 in 10.0 mi West 6.9 mph - N/A   Overcast
11:34 AM 15.8 °F 4.2 °F 6.8 °F 68% 30.02 in 10.0 mi WSW 9.2 mph - N/A   Overcast
11:54 AM 15.8 °F 6.1 °F 6.8 °F 68% 30.01 in 10.0 mi West 6.9 mph - N/A   Overcast
12:14 PM 17.6 °F 6.4 °F 5.0 °F 58% 30.01 in 10.0 mi West 9.2 mph - N/A   Overcast
12:34 PM 17.6 °F 4.3 °F 3.2 °F 53% 30.01 in 10.0 mi West 12.7 mph - N/A   Overcast
12:54 PM 17.6 °F 3.7 °F 3.2 °F 53% 30.00 in 10.0 mi WSW 13.8 mph 18.4 mph N/A   Overcast
1:13 PM 17.6 °F 5.7 °F 6.8 °F 63% 29.99 in 10.0 mi SW 10.4 mph - N/A   Overcast
1:34 PM 17.6 °F 8.2 °F 8.6 °F 68% 29.98 in 10.0 mi SW 6.9 mph - N/A   Overcast
1:54 PM 17.6 °F 5.7 °F 8.6 °F 68% 29.97 in 10.0 mi SW 10.4 mph - N/A   Overcast
2:14 PM 17.6 °F 8.2 °F 8.6 °F 68% 29.97 in 5.0 mi SW 6.9 mph - N/A Snow Light Snow
2:33 PM 17.6 °F 7.3 °F 8.6 °F 68% 29.97 in 10.0 mi SW 8.1 mph - N/A   Overcast
2:54 PM 17.6 °F 6.4 °F 8.6 °F 68% 29.96 in 10.0 mi SW 9.2 mph - N/A   Overcast
3:14 PM 17.6 °F 6.4 °F 10.4 °F 73% 29.96 in 10.0 mi SW 9.2 mph - N/A   Overcast
3:34 PM 17.6 °F 9.3 °F 10.4 °F 73% 29.96 in 10.0 mi SW 5.8 mph - N/A   Overcast
3:54 PM 17.6 °F 8.2 °F 10.4 °F 73% 29.96 in 10.0 mi SW 6.9 mph - N/A   Overcast
4:14 PM 17.6 °F 10.7 °F 8.6 °F 68% 29.95 in 10.0 mi SW 4.6 mph - N/A   Overcast
4:34 PM 17.6 °F 12.3 °F 8.6 °F 68% 29.94 in 10.0 mi SSW 3.5 mph - N/A   Overcast
4:54 PM 17.6 °F 10.7 °F 8.6 °F 68% 29.93 in 10.0 mi SSW 4.6 mph - N/A   Overcast
5:14 PM 17.6 °F 8.2 °F 8.6 °F 68% 29.93 in 10.0 mi SSW 6.9 mph - N/A   Overcast
5:34 PM 17.6 °F 8.2 °F 8.6 °F 68% 29.92 in 10.0 mi South 6.9 mph - N/A   Overcast
5:54 PM 15.8 °F 6.1 °F 10.4 °F 79% 29.91 in 10.0 mi South 6.9 mph - N/A   Overcast
6:14 PM 15.8 °F 7.2 °F 10.4 °F 79% 29.91 in 10.0 mi South 5.8 mph - N/A   Overcast
6:34 PM 15.8 °F 8.6 °F 10.4 °F 79% 29.91 in 10.0 mi South 4.6 mph - N/A   Overcast
6:54 PM 15.8 °F 8.6 °F 10.4 °F 79% 29.90 in 10.0 mi South 4.6 mph - N/A   Overcast
7:14 PM 15.8 °F 7.2 °F 10.4 °F 79% 29.89 in 10.0 mi SSE 5.8 mph - N/A   Overcast
7:34 PM 15.8 °F 6.1 °F 10.4 °F 79% 29.88 in 10.0 mi South 6.9 mph - N/A   Overcast
7:54 PM 15.8 °F 5.1 °F 10.4 °F 79% 29.87 in 10.0 mi South 8.1 mph - N/A   Overcast
8:14 PM 15.8 °F 7.2 °F 10.4 °F 79% 29.87 in 10.0 mi South 5.8 mph - N/A   Overcast
8:34 PM 17.6 °F 9.3 °F 10.4 °F 73% 29.86 in 10.0 mi South 5.8 mph - N/A   Overcast
8:53 PM 17.6 °F 8.2 °F 10.4 °F 73% 29.85 in 10.0 mi South 6.9 mph - N/A   Overcast
9:14 PM 17.6 °F 7.3 °F 10.4 °F 73% 29.83 in 10.0 mi South 8.1 mph - N/A   Overcast
9:34 PM 17.6 °F 7.3 °F 10.4 °F 73% 29.82 in 10.0 mi South 8.1 mph - N/A   Overcast
9:54 PM 17.6 °F 6.4 °F 10.4 °F 73% 29.81 in 10.0 mi South 9.2 mph - N/A   Overcast
10:14 PM 17.6 °F 7.3 °F 12.2 °F 79% 29.80 in 7.0 mi South 8.1 mph 16.1 mph N/A Snow Light Snow
10:34 PM 17.6 °F 5.7 °F 12.2 °F 79% 29.78 in 10.0 mi South 10.4 mph - N/A   Overcast
10:54 PM 19.4 °F 7.9 °F 12.2 °F 74% 29.76 in 10.0 mi SSE 10.4 mph - N/A   Overcast
11:14 PM 19.4 °F 10.4 °F 12.2 °F 74% 29.76 in 10.0 mi South 6.9 mph - N/A   Overcast
11:34 PM 19.4 °F 9.5 °F 12.2 °F 74% 29.75 in 10.0 mi South 8.1 mph - N/A   Overcast
11:54 PM 19.4 °F 11.5 °F 12.2 °F 74% 29.75 in 10.0 mi South 5.8 mph - N/A   Overcast